TimePDT,TemperatureF,Dew PointF,Humidity,Sea Level PressureIn,VisibilityMPH,Wind Direction,Wind SpeedMPH,Gust SpeedMPH,PrecipitationIn,Events,Conditions,WindDirDegrees,DateUTC
12:56 AM,61.0,27.0,27,29.96,10.0,SW,6.9,-,N/A,,Clear,220,2013-04-11 07:56:00
1:56 AM,57.0,28.0,33,29.94,10.0,WSW,4.6,-,N/A,,Clear,250,2013-04-11 08:56:00
2:56 AM,55.9,26.1,32,29.93,10.0,SW,3.5,-,N/A,,Clear,220,2013-04-11 09:56:00
3:56 AM,62.1,25.0,24,29.92,10.0,SSW,3.5,-,N/A,,Clear,210,2013-04-11 10:56:00
4:56 AM,55.9,27.0,33,29.91,10.0,SSE,9.2,-,N/A,,Clear,150,2013-04-11 11:56:00
5:56 AM,52.0,30.0,43,29.90,10.0,Calm,Calm,-,N/A,,Clear,0,2013-04-11 12:56:00
6:56 AM,54.0,30.9,41,29.91,10.0,SW,3.5,-,N/A,,Clear,220,2013-04-11 13:56:00
7:56 AM,61.0,30.0,31,29.92,10.0,SSE,3.5,-,N/A,,Clear,160,2013-04-11 14:56:00
8:56 AM,66.0,42.1,42,29.91,10.0,SE,3.5,-,N/A,,Clear,140,2013-04-11 15:56:00
9:56 AM,73.9,39.9,29,29.89,10.0,SE,5.8,-,N/A,,Clear,140,2013-04-11 16:56:00
10:56 AM,81.0,36.0,20,29.86,10.0,ESE,9.2,-,N/A,,Partly Cloudy,120,2013-04-11 17:56:00
11:56 AM,84.0,32.0,15,29.84,10.0,ESE,10.4,-,N/A,,Partly Cloudy,120,2013-04-11 18:56:00
12:56 PM,88.0,27.0,11,29.82,10.0,ESE,9.2,-,N/A,,Partly Cloudy,120,2013-04-11 19:56:00
1:56 PM,89.1,27.0,11,29.78,10.0,ESE,4.6,-,N/A,,Partly Cloudy,120,2013-04-11 20:56:00
2:56 PM,93.0,26.1,9,29.74,10.0,SW,13.8,23.0,N/A,,Partly Cloudy,230,2013-04-11 21:56:00
3:56 PM,91.9,27.0,10,29.70,10.0,SSW,13.8,20.7,N/A,,Partly Cloudy,210,2013-04-11 22:56:00
4:56 PM,91.0,28.0,10,29.69,10.0,SW,9.2,-,N/A,,Partly Cloudy,230,2013-04-11 23:56:00
5:56 PM,84.9,39.0,20,29.69,10.0,SSE,17.3,-,N/A,,Partly Cloudy,150,2013-04-12 00:56:00
6:56 PM,81.0,36.0,20,29.69,10.0,South,12.7,-,N/A,,Partly Cloudy,170,2013-04-12 01:56:00
7:56 PM,75.0,36.0,24,29.70,10.0,Variable,6.9,-,N/A,,Partly Cloudy,0,2013-04-12 02:56:00
8:56 PM,71.1,37.0,29,29.72,10.0,South,5.8,-,N/A,,Partly Cloudy,170,2013-04-12 03:56:00
9:56 PM,68.0,39.0,35,29.74,10.0,South,5.8,-,N/A,,Clear,170,2013-04-12 04:56:00
10:56 PM,66.0,41.0,40,29.73,10.0,SSE,3.5,-,N/A,,Clear,150,2013-04-12 05:56:00
11:56 PM,62.1,39.9,44,29.73,10.0,NE,8.1,-,N/A,,Clear,50,2013-04-12 06:56:00